#timestamp,LO_Frequency,Hit,Temp,Hum 
1487750415.8,286046994.3,N,0.0,0.0
1487750435.6,286046992.4,Y,0.0,0.0
1487750455.5,286047001.0,N,0.0,0.0
1487750475.3,286047000.0,N,0.0,0.0
1487750495.1,286046999.9,N,0.0,0.0
1487750515.8,286046998.9,N,0.0,0.0
1487750535.7,286046996.6,N,0.0,0.0
1487750555.5,286046998.8,N,0.0,0.0
1487750575.3,286046996.9,N,0.0,0.0
1487750595.2,286046997.0,N,0.0,0.0
1487750615.0,286046996.8,N,0.0,0.0
1487750615.9,286046996.8,N,0.0,0.0
1487750635.7,286046997.5,N,0.0,0.0
1487750655.6,286046997.7,N,0.0,0.0
1487750675.4,286046995.0,N,0.0,0.0
1487750695.2,286046997.6,N,0.0,0.0
1487750715.1,286046996.3,N,0.0,0.0
1487750716.0,286046996.3,N,0.0,0.0
1487750735.8,286046995.1,N,0.0,0.0
1487750755.6,286046991.8,Y,0.0,0.0
1487750775.5,286046997.4,N,0.0,0.0
1487750795.3,286046997.5,N,0.0,0.0
1487750815.1,286046995.4,N,0.0,0.0
1487750835.9,286046993.6,Y,0.0,0.0
1487750855.7,286046997.6,N,0.0,0.0
1487750875.5,286046997.4,N,0.0,0.0
1487750895.4,286046995.1,Y,0.0,0.0
1487750915.2,286046998.6,N,0.0,0.0
1487750935.0,286046996.6,N,0.0,0.0
1487750936.0,286046996.6,N,0.0,0.0
1487750955.8,286047000.8,N,0.0,0.0
1487750975.6,286046997.4,N,0.0,0.0
1487750995.4,286046998.0,N,0.0,0.0
1487751015.3,286046997.2,N,0.0,0.0
1487751035.1,286046998.0,N,0.0,0.0
1487751055.8,286046995.8,N,0.0,0.0
1487751075.7,286046995.8,N,0.0,0.0
1487751095.5,286046996.0,N,0.0,0.0
1487751115.3,286046996.4,N,0.0,0.0
1487751135.2,286046996.4,N,0.0,0.0
1487751155.9,286046994.1,Y,0.0,0.0
1487751175.7,286046997.1,N,0.0,0.0
1487751195.6,286046994.9,Y,0.0,0.0
1487751215.4,286046998.9,N,0.0,0.0
1487751235.2,286046999.2,N,0.0,0.0
1487751255.1,286047000.9,N,0.0,0.0
1487751256.0,286047000.9,N,0.0,0.0
1487751275.8,286046998.5,N,0.0,0.0
1487751295.6,286046996.9,N,0.0,0.0
1487751315.5,286046997.1,N,0.0,0.0
1487751335.3,286046993.8,Y,0.0,0.0
1487751355.1,286046999.6,N,0.0,0.0
1487751375.9,286046997.0,N,0.0,0.0
1487751395.4,286046997.7,N,0.0,0.0
1487751415.3,286046997.3,N,0.0,0.0
1487751435.1,286046995.3,N,0.0,0.0
1487751455.9,286046993.5,Y,0.0,0.0
1487751475.7,286046999.4,N,0.0,0.0
1487751495.6,286046999.2,N,0.0,0.0
1487751515.4,286046996.9,N,0.0,0.0
1487751535.2,286046997.6,N,0.0,0.0
1487751555.0,286046995.1,N,0.0,0.0
1487751575.4,286046997.8,N,0.0,0.0
1487751595.2,286046997.7,N,0.0,0.0
1487751615.1,286046993.6,Y,0.0,0.0
1487751616.0,286046993.6,Y,0.0,0.0
1487751635.8,286047001.6,N,0.0,0.0
1487751655.6,286047001.0,N,0.0,0.0
1487751675.5,286046998.5,N,0.0,0.0
1487751695.3,286046998.5,N,0.0,0.0
1487751715.1,286046998.4,N,0.0,0.0
1487751735.9,286046998.9,N,0.0,0.0
1487751755.7,286046999.5,N,0.0,0.0
1487751775.6,286046998.4,N,0.0,0.0
1487751795.4,286046999.5,N,0.0,0.0
1487751815.2,286046997.2,N,0.0,0.0
1487751835.0,286046996.6,N,0.0,0.0
1487751836.0,286046996.6,N,0.0,0.0
1487751855.8,286046996.8,N,0.0,0.0
1487751875.6,286046997.0,N,0.0,0.0
1487751895.4,286046997.8,N,0.0,0.0
1487751915.3,286046995.1,N,0.0,0.0
1487751935.1,286046995.2,N,0.0,0.0
1487751955.8,286046996.0,N,0.0,0.0
1487751975.7,286046993.3,Y,0.0,0.0
1487751995.5,286046998.0,N,0.0,0.0
1487752015.4,286046997.4,N,0.0,0.0
1487752035.2,286046995.1,N,0.0,0.0
1487752055.1,286046997.6,N,0.0,0.0
1487752056.0,286046997.6,N,0.0,0.0
1487752075.8,286046995.0,N,0.0,0.0
1487752095.6,286046997.0,N,0.0,0.0
1487752115.5,286046997.4,N,0.0,0.0
1487752135.3,286046997.3,N,0.0,0.0
1487752155.1,286046997.8,N,0.0,0.0
1487752175.9,286046996.7,N,0.0,0.0
1487752195.7,286046997.3,N,0.0,0.0
1487752215.5,286046995.2,Y,0.0,0.0
1487752235.4,286046998.4,N,0.0,0.0
1487752255.2,286046999.2,N,0.0,0.0
1487752275.0,286046999.1,N,0.0,0.0
1487752275.9,286046999.1,N,0.0,0.0
1487752295.8,286046998.9,N,0.0,0.0
1487752315.6,286046998.9,N,0.0,0.0
1487752335.4,286046998.7,N,0.0,0.0
1487752355.3,286046998.8,N,0.0,0.0
1487752375.1,286047000.8,N,0.0,0.0
1487752376.0,286047000.8,N,0.0,0.0
1487752395.8,286047000.5,N,0.0,0.0
1487752415.7,286046998.5,N,0.0,0.0
1487752435.5,286046998.8,N,0.0,0.0
1487752455.3,286046998.5,N,0.0,0.0
1487752475.1,286047000.4,N,0.0,0.0
1487752495.9,286047001.2,N,0.0,0.0
1487752515.7,286047000.0,N,0.0,0.0
1487752535.5,286047001.2,N,0.0,0.0
1487752555.4,286047000.7,N,0.0,0.0
1487752575.2,286046999.8,N,0.0,0.0
1487752595.0,286047002.6,N,0.0,0.0
1487752595.9,286047002.6,N,0.0,0.0
1487752615.8,286047002.2,N,0.0,0.0
1487752635.6,286047002.2,N,0.0,0.0
1487752655.4,286047002.0,N,0.0,0.0
1487752675.3,286047002.2,N,0.0,0.0
1487752695.1,286047001.3,N,0.0,0.0
1487752715.8,286047002.2,N,0.0,0.0
1487752735.7,286047002.0,N,0.0,0.0
1487752755.5,286047002.3,N,0.0,0.0
1487752775.3,286047002.2,N,0.0,0.0
1487752795.2,286047003.6,N,0.0,0.0
1487752815.9,286047003.7,N,0.0,0.0
1487752835.7,286047004.1,N,0.0,0.0
1487752855.6,286047003.9,N,0.0,0.0
1487752875.4,286047003.6,N,0.0,0.0
1487752895.2,286047003.3,N,0.0,0.0
1487752915.0,286047004.2,N,0.0,0.0
1487752916.0,286047004.2,N,0.0,0.0
1487752935.8,286047005.7,Y,0.0,0.0
1487752955.6,286047001.4,N,0.0,0.0
1487752975.5,286047002.5,N,0.0,0.0
1487752995.3,286046999.8,N,0.0,0.0
1487753015.8,286047003.9,N,0.0,0.0
1487753035.7,286047003.6,N,0.0,0.0
1487753055.5,286047003.4,N,0.0,0.0
1487753075.3,286047005.8,Y,0.0,0.0
1487753095.2,286047003.8,N,0.0,0.0
1487753115.9,286047004.1,N,0.0,0.0
1487753135.0,286047001.7,N,0.0,0.0
1487753135.9,286047001.7,N,0.0,0.0
1487753155.8,286047001.5,N,0.0,0.0
1487753175.6,286047001.7,N,0.0,0.0
1487753195.4,286047003.5,N,0.0,0.0
1487753215.3,286047003.6,N,0.0,0.0
1487753235.1,286047003.1,N,0.0,0.0
1487753255.8,286047002.9,N,0.0,0.0
1487753275.7,286047005.8,Y,0.0,0.0
1487753295.5,286047002.4,N,0.0,0.0
1487753315.3,286047001.7,N,0.0,0.0
1487753335.2,286047004.1,Y,0.0,0.0
1487753355.0,286047000.4,N,0.0,0.0
1487753355.9,286047000.4,N,0.0,0.0
1487753375.7,286047000.0,N,0.0,0.0
1487753395.6,286047000.8,N,0.0,0.0
1487753415.4,286047000.4,N,0.0,0.0
1487753435.2,286047002.0,N,0.0,0.0
1487753455.1,286047003.5,N,0.0,0.0
1487753456.0,286047003.5,N,0.0,0.0
1487753475.8,286047004.7,N,0.0,0.0
1487753495.6,286047003.1,N,0.0,0.0
1487753515.5,286047005.3,Y,0.0,0.0
1487753535.3,286047004.4,N,0.0,0.0
1487753555.1,286047002.0,N,0.0,0.0
1487753575.9,286047002.5,N,0.0,0.0
1487753595.7,286047003.1,N,0.0,0.0
1487753615.5,286047005.5,Y,0.0,0.0
1487753635.4,286047001.3,N,0.0,0.0
1487753655.2,286047002.4,N,0.0,0.0
1487753675.0,286047000.6,N,0.0,0.0
1487753675.9,286047000.6,N,0.0,0.0
1487753695.8,286047002.4,N,0.0,0.0
1487753715.6,286047001.5,N,0.0,0.0
1487753735.4,286046999.7,N,0.0,0.0
1487753755.3,286047002.1,N,0.0,0.0
1487753775.1,286047001.4,N,0.0,0.0
1487753795.8,286047003.0,N,0.0,0.0
1487753815.7,286047007.4,Y,0.0,0.0
1487753835.5,286047003.5,N,0.0,0.0
1487753855.3,286047001.5,N,0.0,0.0
1487753875.2,286047001.4,N,0.0,0.0
1487753895.9,286047003.5,N,0.0,0.0
1487753915.7,286047005.4,Y,0.0,0.0
1487753935.6,286047001.9,N,0.0,0.0
1487753955.4,286047001.6,N,0.0,0.0
1487753975.2,286047003.6,N,0.0,0.0
1487753995.1,286047003.2,N,0.0,0.0
1487753996.0,286047003.2,N,0.0,0.0
